SCP
0 0 0 0 0 0 0 0 0 0 0 0 -0 0 0 0 0 0 0 0 0 0 0 0 -0 -0 0 0 0 0 0 0 0 -0 -0 -0 0 0 0 0 0 0 0 0 0 0 0 1 0 0 2 1 1 1
0 0 0 0 0 0 0 0 0 0 0 0 0 0 0 0 0 0 0 0 0 0 0 -0 -0 -0 -0 0 -0 -0 -0 0 0 0 0 0 0 0 0 0 0 0 0 0 0 0 1 1 1 1 1 2 2 2
0 0 0 0 0 0 0 0 0 0 0 0 0 -0 0 0 0 -0 -0 -0 0 -0 -0 -0 -0 -0 -0 -0 0 -0 0 0 0 -0 0 0 0 1 0 0 0 0 -0 0 0 1 1 1 1 2 2 3 2 2
0 0 0 0 0 0 0 0 0 0 0 0 0 0 0 -0 0 0 0 -0 -0 -0 -0 -0 -0 -0 0 0 -0 0 0 0 0 0 -0 0 0 0 0 0 0 0 0 0 0 2 2 2 2 2 2 1 1 1
0 0 0 0 0 0 0 0 0 0 0 0 0 0 0 0 0 0 0 0 0 -0 0 -0 -0 -0 -0 -0 -0 0 0 0 0 -0 -0 0 0 -0 0 0 -0 0 0 1 2 1 2 2 1 0 0 0 0 0
0 0 0 0 0 0 0 0 0 0 0 0 0 0 0 0 0 0 0 0 -0 0 0 0 0 0 0 -0 0 -0 -0 0 -0 -0 0 0 -0 -0 0 0 0 0 0 0 0 0 0 0 0 0 0 0 0 0
0 0 0 0 0 0 0 0 0 0 -0 0 0 0 0 0 0 0 0 0 0 -0 0 0 0 0 0 0 0 0 -0 0 0 0 -0 0 -0 -0 -0 0 -0 0 0 0 0 0 0 0 0 0 0 0 0 0
0 0 0 0 0 0 0 0 0 0 0 0 0 0 0 0 0 0 0 0 0 0 0 0 0 0 0 -0 -0 0 -0 -0 0 -0 -0 0 0 0 -0 -0 0 0 -0 0 0 0 0 0 0 0 0 0 0 0
0 0 0 0 0 0 0 0 0 0 -0 -0 0 0 0 0 0 0 0 0 0 0 0 -0 -0 -0 0 -0 -0 0 -0 -0 -0 -0 0 0 0 0 0 0 0 0 0 0 -0 -0 -0 0 0 0 0 0 0 0
0 0 0 0 0 0 0 0 0 0 -0 -0 0 0 0 0 0 0 0 0 0 0 0 0 0 0 0 0 -0 -0 -0 -0 0 0 0 0 0 0 0 0 0 0 0 0 0 0 0 0 0 0 0 0 0 0
0 0 0 0 0 0 0 0 0 0 0 0 0 0 0 0 0 0 0 0 0 0 0 0 0 0 -0 0 0 -0 0 0 0 0 0 0 0 0 0 0 0 0 0 0 0 0 0 0 -0 0 0 0 0 0
0 0 0 0 0 0 0 0 0 0 0 0 0 0 0 0 0 0 0 0 0 0 0 0 0 0 0 0 0 0 0 0 0 0 0 0 0 0 0 0 0 -0 0 0 0 0 0 0 0 0 0 0 0 0
0 0 0 0 0 0 0 0 0 0 0 0 0 0 0 0 0 0 0 0 0 0 0 0 -0 0 0 0 0 0 0 0 0 0 0 0 0 0 0 -0 -0 -0 0 0 0 0 0 -0 -0 -0 -0 -0 -0 -0
0 0 0 0 0 0 0 0 0 0 0 0 0 0 0 0 0 0 0 0 0 -0 -0 0 0 0 0 0 0 0 0 0 0 0 0 0 0 0 0 0 0 -0 -0 -0 -0 0 -0 -0 -0 -0 0 -0 -0 -0
0 0 0 0 0 0 -0 -0 0 0 0 -0 -0 0 0 0 0 0 0 0 -0 0 0 0 0 0 0 0 0 0 0 0 0 0 0 0 0 0 0 -0 -0 0 0 0 0 0 0 0 0 -0 -0 -0 0 0
0 -0 0 -0 -0 0 -0 0 0 0 0 0 0 0 -0 -0 -0 0 0 -0 0 0 0 0 0 0 0 0 0 0 0 0 0 0 0 0 0 0 0 0 -0 -0 0 -0 -0 -0 -0 -0 -0 -0 0 0 0 0
0 0 -0 -0 -0 -0 0 0 0 0 0 0 0 -0 -0 -0 0 0 -0 0 0 0 0 0 0 0 0 0 0 0 0 0 0 0 0 0 0 0 0 -0 -0 -0 -0 -0 -0 0 0 -0 -0 -0 -0 0 0 -0
0 0 -0 0 0 0 0 0 0 0 0 0 0 0 0 0 0 -0 0 0 0 0 0 0 0 0 0 0 0 0 0 0 0 0 0 -0 0 0 0 0 0 0 -0 -0 -0 -0 -0 -0 0 0 0 -0 0 0
0 0 -0 -0 0 0 0 0 0 0 0 0 0 0 0 0 -0 -0 -0 -0 -0 -0 0 0 0 0 0 0 0 0 0 0 -0 -0 0 0 0 0 -0 -0 -0 -0 0 -0 -0 0 0 0 0 0 0 0 0 0
0 0 0 -0 0 0 0 0 0 0 0 0 0 0 0 0 0 0 -0 0 0 0 0 0 0 0 0 0 0 -0 0 0 0 -0 -0 -0 -0 0 -0 0 -0 0 0 0 0 0 0 0 0 0 0 0 0 0
0 0 0 0 0 0 0 0 0 0 0 0 0 0 0 0 0 0 0 0 0 0 0 -0 -0 -0 0 -0 -0 -0 -0 0 0 -0 -0 0 -0 -0 -0 -0 0 0 0 0 0 0 0 0 0 0 0 0 0 0
0 0 0 0 0 0 0 0 0 0 0 0 0 0 0 0 0 0 0 0 0 0 0 -0 -0 -0 0 -0 -0 -0 -0 -0 -0 -0 -0 -0 -0 -0 0 0 0 0 0 0 0 0 0 0 0 0 0 0 0 0
0 0 0 0 0 0 0 0 0 0 0 0 0 0 0 0 0 0 0 0 0 0 0 0 -0 0 0 0 0 -0 -0 -0 0 0 0 -0 0 0 0 0 0 0 0 0 0 0 0 0 0 0 0 0 0 0
0 0 0 0 0 0 0 0 0 0 0 0 0 0 0 0 0 0 0 0 0 0 0 0 0 0 -0 -0 0 -0 0 0 0 0 0 0 0 0 0 0 0 0 0 0 0 0 0 0 0 0 0 0 0 0
0 0 0 0 0 0 0 0 0 0 0 0 0 0 0 0 0 0 0 0 0 0 0 0 0 0 0 0 0 0 0 0 0 0 0 0 0 0 0 0 0 0 0 0 0 0 0 0 0 0 0 0 0 0
0 0 0 0 0 0 0 0 0 0 0 0 0 0 0 0 0 0 0 0 0 0 0 0 0 0 0 0 0 0 0 0 0 0 0 0 0 0 0 0 0 0 0 0 0 0 0 0 0 0 0 0 0 0
0 0 0 0 0 0 0 0 0 0 0 0 0 0 0 0 0 0 0 0 0 0 0 0 0 0 0 0 0 0 0 0 0 0 0 0 0 0 0 0 0 0 0 0 0 0 0 0 0 0 0 0 0 0
0 0 0 0 -0 0 0 0 0 0 0 0 0 0 0 0 0 0 0 0 0 -0 -0 -0 -0 0 0 0 0 0 0 0 0 0 0 0 0 0 0 0 0 0 0 0 0 0 0 0 0 0 0 0 0 0
0 0 0 0 0 0 0 0 0 0 0 0 0 0 0 0 0 0 0 -0 0 0 0 0 0 0 0 0 0 0 0 0 0 0 0 0 0 0 0 0 0 0 0 0 0 0 0 0 0 0 0 0 0 0
0 0 -0 0 0 0 0 0 0 0 0 0 0 0 0 0 0 0 0 0 0 0 0 0 0 0 0 0 0 0 0 0 0 0 0 0 0 0 0 0 0 0 0 0 0 0 0 0 0 0 0 0 0 0
0 0 0 0 0 0 0 0 0 0 0 0 0 0 0 0 0 0 0 0 0 0 0 0 0 0 0 0 0 0 0 0 0 0 0 0 0 0 0 0 0 0 0 0 0 0 0 0 0 0 0 0 0 0
0 0 0 0 0 0 0 0 0 0 0 0 0 0 0 0 0 0 0 0 0 0 0 0 0 0 0 0 0 0 0 0 0 0 0 0 0 0 0 0 0 0 0 0 0 0 0 0 0 0 0 0 0 0
-0 0 0 0 0 0 0 0 0 0 0 0 0 0 0 0 0 0 0 0 0 0 0 0 0 0 0 0 0 0 0 0 0 0 -0 0 0 0 0 0 0 0 0 0 0 0 0 0 0 0 -0 -0 -0 -0
Wind_Speed_500mb
54 53 52 51 51 54 51 45 38 35 27 28 27 30 27 31 24 27 30 26 42 31 55 51 58 58 55 49 22 19 19 10 18 17 12 11 14 14 22 36 29 22 19 25 23 29 27 26 23 23 5 16 3 10
50 50 51 47 49 47 43 38 33 30 29 26 31 29 24 19 23 26 33 21 28 38 42 50 53 53 55 51 41 40 19 32 12 5 4 8 15 13 20 17 34 27 25 21 20 17 16 15 11 21 19 15 23 20
50 48 45 45 44 44 40 35 32 32 33 29 28 28 28 27 22 25 31 32 28 25 47 53 48 46 55 64 59 52 44 27 24 11 5 6 15 7 7 14 20 26 25 19 23 6 16 30 17 24 25 35 28 28
46 45 46 45 45 43 42 38 36 35 35 31 31 26 21 19 23 29 34 32 28 16 11 33 24 39 33 39 55 52 56 43 25 17 2 6 8 12 9 13 14 12 27 25 22 34 29 27 28 32 38 35 34 39
44 45 44 44 44 43 41 42 41 37 36 34 27 24 23 21 25 26 26 26 22 21 9 39 64 41 34 31 41 40 37 41 32 13 5 5 12 6 4 9 6 4 11 10 7 29 21 32 39 37 43 46 43 39
43 43 44 45 42 42 42 43 41 39 37 34 31 29 29 26 26 32 11 4 5 16 13 9 36 30 21 40 28 30 30 33 17 6 3 12 10 7 7 3 10 30 19 15 12 58 36 61 53 49 51 44 40 46
41 39 41 43 42 43 45 46 44 43 41 38 36 31 27 24 24 23 14 17 20 19 10 11 12 17 18 13 25 26 26 21 12 8 10 12 7 7 6 4 7 20 31 42 56 58 45 34 41 41 42 42 50 42
40 40 40 42 45 48 51 53 50 47 42 32 27 27 27 28 31 28 15 16 7 12 8 7 10 14 6 31 19 28 29 28 13 11 8 5 7 10 6 5 23 27 38 47 60 51 38 37 36 44 54 59 48 44
38 38 42 46 51 59 60 56 50 44 31 24 22 21 25 11 9 9 23 29 11 14 7 5 5 7 17 7 14 22 32 11 15 3 3 5 3 3 9 17 25 24 21 41 52 50 41 44 50 52 51 44 53 46
38 41 45 50 56 65 65 57 50 44 26 26 21 8 10 9 25 38 7 5 7 8 10 8 15 7 4 10 5 15 7 5 1 5 6 6 7 23 29 22 26 33 32 40 38 34 41 51 52 43 41 35 38 41
43 48 53 54 57 67 66 55 49 44 22 21 13 9 27 20 13 7 7 6 4 6 12 16 18 5 5 6 3 12 4 6 3 2 3 6 6 9 17 25 38 48 50 51 50 43 34 32 36 38 40 33 41 21
47 52 56 53 58 69 63 52 50 32 18 14 19 17 19 10 6 7 7 4 6 5 12 11 10 10 4 4 2 7 1 4 5 5 6 5 5 14 3 15 28 44 52 44 38 34 28 23 20 14 19 11 3 13
49 53 56 49 64 72 65 49 39 22 14 12 11 10 14 9 8 14 11 5 11 11 16 15 10 2 6 9 4 5 9 10 10 7 6 5 11 12 10 19 30 28 30 31 31 27 17 12 20 19 16 22 6 15
48 51 45 52 68 67 53 39 31 31 12 9 12 12 10 11 12 10 22 23 39 48 53 37 21 3 12 8 7 7 2 2 8 8 9 7 17 19 15 18 38 32 25 29 25 17 26 32 38 26 21 20 17 18
47 43 36 56 64 56 39 21 31 26 11 10 10 8 13 22 32 27 38 46 48 47 50 17 11 5 17 11 9 8 9 11 9 8 4 7 21 27 30 33 26 30 24 33 40 36 32 30 30 29 30 32 18 13
47 34 29 55 52 40 31 18 22 13 10 9 8 19 37 35 38 45 48 48 59 59 11 16 15 10 13 9 14 17 8 11 7 4 7 17 25 25 27 28 32 32 20 27 27 23 28 25 21 21 20 22 22 20
40 17 50 50 46 17 37 20 11 12 11 12 23 33 35 38 33 40 50 48 47 48 25 10 15 14 12 9 8 6 3 6 15 19 18 22 24 29 33 30 32 31 33 34 22 29 25 20 22 21 20 17 16 19
33 38 39 42 38 16 14 15 13 12 17 24 26 34 38 37 38 40 34 41 39 37 38 23 21 22 12 8 6 9 7 15 11 10 16 18 20 21 24 25 25 24 30 42 30 29 28 36 38 39 32 29 18 35
33 32 30 31 24 15 11 14 14 13 18 29 32 38 34 42 47 52 49 41 43 40 43 24 13 14 18 24 31 36 38 30 23 25 26 30 31 29 25 28 25 24 30 32 33 30 28 29 29 31 28 28 23 21
22 18 28 22 29 10 8 7 8 11 15 18 19 22 33 40 43 45 55 55 50 47 30 16 19 35 40 41 41 40 35 35 35 34 34 36 27 30 30 27 26 26 24 25 28 26 29 25 27 27 26 25 25 22
22 22 16 22 11 15 12 13 12 12 14 17 31 25 30 38 49 50 49 44 53 22 27 37 43 45 43 44 46 42 39 33 37 29 23 31 23 22 17 17 20 21 20 22 24 25 26 27 26 27 23 23 22 19
17 20 16 15 11 11 8 13 10 13 12 16 23 20 15 24 33 32 34 42 22 21 22 29 35 40 45 51 53 57 56 34 27 30 32 18 26 23 25 23 22 20 22 25 24 24 25 26 26 27 24 24 23 21
21 19 11 10 8 8 6 7 6 6 7 10 10 9 10 10 11 10 10 18 19 22 35 24 28 39 41 41 50 52 53 48 42 34 35 34 25 23 22 18 18 18 16 19 21 25 27 27 29 25 22 22 22 21
15 8 7 9 9 6 8 2 1 4 5 8 6 4 5 4 5 10 11 17 28 39 41 39 35 35 38 41 43 47 50 44 36 33 33 32 30 28 34 34 26 26 30 23 23 28 29 28 28 27 25 27 22 17
7 7 7 8 2 8 3 7 11 6 4 1 2 2 4 9 4 7 7 22 35 39 43 36 35 36 37 38 38 39 40 40 39 36 32 30 26 24 24 22 36 29 30 31 32 29 29 28 29 31 30 29 25 23
4 2 4 16 11 8 11 11 10 9 8 6 10 14 16 9 8 8 8 18 24 30 31 36 37 37 35 35 39 41 39 38 38 35 34 34 29 25 25 29 33 34 36 32 30 31 33 30 31 33 33 33 31 29
3 2 8 7 7 11 18 23 16 12 7 6 14 14 2 7 8 6 21 25 22 22 24 29 34 24 29 34 35 35 35 35 38 34 29 28 28 25 27 31 33 32 30 27 28 30 29 30 32 33 31 28 26 28
18 17 23 49 22 22 7 9 10 10 15 22 10 14 7 7 5 8 9 15 20 24 21 13 17 25 31 35 35 34 31 32 34 34 26 22 27 30 29 27 28 28 26 25 28 26 24 33 33 29 26 26 28 27
13 40 21 13 21 20 17 15 24 24 31 28 14 11 7 5 8 4 7 9 13 17 23 28 28 30 31 31 29 29 30 31 36 38 36 32 33 34 32 29 29 27 26 25 30 22 25 29 27 24 25 27 28 28
20 12 15 8 20 12 24 20 24 24 30 33 23 20 14 8 5 7 14 19 24 26 28 30 29 30 30 31 31 28 28 28 26 31 32 32 32 30 28 30 28 28 27 25 25 23 29 26 26 26 27 26 27 29
9 7 8 16 9 18 14 11 15 14 16 20 16 14 15 8 7 13 24 26 27 29 28 27 27 26 26 29 28 29 26 24 23 28 32 23 23 23 25 28 27 29 26 27 25 26 28 28 27 27 29 30 30 31
7 16 21 3 8 14 12 5 7 7 9 6 3 7 10 8 3 8 20 31 29 28 26 28 26 23 22 23 24 23 22 16 21 27 34 26 22 20 22 26 25 29 27 26 25 25 27 28 27 29 30 31 32 33
11 16 14 14 8 2 21 10 5 3 4 7 6 13 16 11 10 14 16 24 24 22 25 25 24 21 21 22 25 22 18 14 27 24 42 36 30 28 24 26 28 29 27 27 24 23 25 27 28 30 31 32 33 35
Wind_Direction_500mb
340 341 341 340 338 337 335 334 331 329 330 328 325 320 301 290 278 277 278 270 240 258 269 274 270 277 282 270 256 292 320 261 246 201 170 190 257 271 239 248 222 217 217 234 225 214 221 118 157 230 8 110 34 326
342 343 343 343 347 348 348 347 345 343 339 328 321 317 316 299 292 285 277 279 265 263 268 281 264 262 257 260 276 259 228 279 332 296 203 239 252 290 302 287 266 247 245 244 245 242 134 131 97 116 131 106 38 17
352 349 349 350 349 353 353 353 349 348 344 336 329 321 310 303 294 285 284 277 287 287 283 268 268 270 254 247 243 257 263 268 266 210 294 271 249 326 279 267 326 274 31 269 229 196 115 112 131 119 110 90 64 41
360 1 0 358 355 356 353 348 342 336 337 333 330 328 327 316 308 296 285 284 284 276 275 288 291 288 275 273 221 231 242 257 301 302 295 277 284 19 347 317 307 324 318 321 241 134 114 117 112 107 100 94 77 62
1 1 360 359 356 355 354 351 344 338 338 337 335 329 329 320 330 323 303 291 272 243 284 297 303 284 266 235 212 214 225 236 263 306 353 306 321 357 340 265 310 345 331 334 336 334 114 111 102 93 84 79 75 75
355 355 355 353 353 355 357 354 353 351 343 337 326 320 315 311 307 313 300 359 8 267 289 305 311 304 292 191 195 199 209 223 256 74 340 294 267 218 287 324 294 338 306 279 108 61 62 78 84 81 77 82 80 77
356 357 354 354 355 352 349 349 348 342 333 328 321 315 310 305 299 283 280 276 291 303 284 295 296 289 296 213 182 185 194 187 187 117 213 252 230 27 247 254 341 23 126 94 95 96 62 65 68 72 68 76 79 76
358 356 357 359 357 353 347 342 340 336 329 327 325 318 306 295 285 281 291 333 228 240 255 279 284 282 241 197 164 179 179 186 155 190 225 252 300 238 199 110 86 44 65 88 90 106 105 94 80 65 61 65 62 61
354 357 355 354 356 355 349 344 342 345 349 343 334 310 306 289 255 300 313 311 281 228 267 250 272 315 318 109 252 146 191 191 153 220 211 248 276 347 358 70 86 82 92 96 94 95 95 84 66 57 54 53 58 43
352 351 351 352 353 356 353 345 343 338 340 346 324 279 287 297 297 305 295 228 221 224 233 250 210 260 268 241 318 188 82 63 355 283 253 48 17 31 32 84 106 110 99 103 92 83 75 75 75 62 55 47 60 46
345 344 343 345 350 355 352 346 348 352 19 346 319 292 303 308 293 235 223 253 237 265 224 255 270 257 177 162 232 20 79 126 146 236 46 53 9 15 38 83 103 104 107 104 104 102 101 101 90 72 72 61 61 46
340 340 341 341 350 355 352 349 344 354 323 320 319 310 314 292 268 311 315 202 215 288 285 259 322 324 118 129 102 204 351 108 39 344 76 75 357 27 95 137 110 97 96 92 88 85 83 92 96 79 111 123 136 2
335 337 337 339 352 351 349 351 353 13 26 360 337 323 327 304 349 352 327 336 303 176 256 258 54 230 241 116 251 306 33 64 165 41 62 78 223 213 153 106 108 101 97 84 71 68 50 59 70 68 60 38 113 103
335 337 334 344 351 346 344 359 19 28 23 16 346 352 355 336 2 306 305 309 310 8 354 350 345 268 213 177 64 19 334 349 52 45 42 38 352 11 126 75 76 74 93 92 87 84 76 62 82 79 48 43 55 65
335 339 329 345 339 342 348 13 21 17 355 11 32 331 348 310 305 305 340 341 4 340 312 317 203 291 12 28 35 32 44 53 36 31 36 2 358 27 58 68 70 84 69 62 66 61 62 58 65 69 61 53 55 68
333 345 323 328 340 350 11 37 16 3 354 8 342 351 1 0 357 360 352 353 350 350 349 30 23 37 37 36 23 29 26 19 320 347 74 36 44 42 40 49 58 78 114 101 87 73 57 75 73 61 50 52 49 55
329 323 317 336 345 6 26 15 353 20 21 14 3 4 12 2 14 351 348 358 5 5 34 27 31 27 47 26 43 49 44 315 316 34 57 62 56 59 53 53 56 51 47 49 48 63 60 56 62 59 64 45 49 56
327 323 337 343 354 52 10 1 344 23 24 27 360 19 14 3 2 1 8 11 6 11 46 57 53 42 40 21 29 3 61 94 141 85 94 73 65 75 80 75 66 57 49 50 70 57 52 43 49 37 39 53 22 19
333 339 352 6 19 36 9 12 354 359 23 24 13 20 8 14 10 7 17 40 45 51 51 45 53 38 46 35 36 40 41 49 51 52 66 69 58 56 81 82 82 72 57 57 55 49 48 46 35 24 17 19 19 20
355 4 11 25 31 356 9 352 327 360 15 339 10 28 18 26 23 26 31 35 48 47 42 46 53 47 47 43 41 40 47 54 56 56 51 41 51 59 50 50 51 55 53 48 42 32 24 27 20 8 360 348 347 354
17 349 27 38 30 24 12 358 350 12 338 348 4 48 42 49 40 30 27 46 50 39 46 56 63 59 50 43 38 37 40 55 57 47 49 49 38 43 43 48 43 41 38 33 19 19 20 23 8 0 355 357 351 341
350 18 51 3 15 14 42 17 9 338 337 358 22 46 42 36 54 48 45 57 52 42 44 48 53 54 48 41 32 31 28 29 46 32 17 42 42 23 25 19 19 21 24 29 16 19 15 14 3 358 357 357 351 349
5 14 4 359 9 24 359 353 11 342 2 1 22 46 27 28 43 36 49 27 21 39 48 39 54 53 47 44 34 32 27 19 29 32 16 9 20 22 6 1 3 19 23 23 15 11 3 359 356 349 348 352 345 354
22 17 342 353 350 334 336 316 331 341 37 15 31 20 109 113 64 49 65 25 32 38 35 30 30 30 32 29 28 24 16 14 13 16 17 10 8 5 28 31 31 38 26 20 9 357 351 349 346 345 346 339 349 353
341 14 324 283 266 332 14 343 350 33 331 172 117 212 188 129 94 69 68 3 27 25 21 18 21 25 23 13 10 9 9 9 5 357 10 6 5 7 13 11 43 43 14 2 354 353 351 345 348 357 360 9 4 351
19 106 2 357 357 4 353 1 358 335 341 334 3 8 24 42 68 50 18 358 12 12 22 22 15 6 2 3 0 4 6 5 3 2 358 356 19 28 20 10 3 5 7 359 359 357 351 349 347 344 341 341 338 332
279 266 260 268 297 3 28 341 333 27 54 319 354 356 53 61 66 45 44 42 41 20 5 349 344 355 354 359 359 359 360 2 2 354 349 5 35 30 21 10 8 354 353 354 355 353 351 352 347 341 337 334 335 335
346 326 36 18 326 104 135 354 37 4 349 352 7 23 42 54 75 38 26 351 334 328 342 0 2 3 2 357 353 355 357 358 359 359 359 16 22 18 11 1 354 356 352 356 360 350 353 347 343 346 346 342 346 348
5 13 4 10 39 40 38 46 28 27 2 354 49 45 67 115 111 358 338 342 345 342 344 4 351 352 354 354 358 1 5 4 7 10 11 4 360 357 356 357 355 355 353 352 349 358 13 4 355 355 351 349 346 347
359 81 102 288 51 56 44 54 43 52 49 53 83 99 96 96 62 360 352 337 337 347 357 353 357 2 359 358 359 1 7 10 14 11 1 355 351 350 357 357 357 355 354 357 356 358 359 1 355 357 358 355 354 352
3 9 40 45 24 116 84 91 89 81 80 82 80 100 123 120 41 36 13 8 1 1 1 358 1 3 2 2 1 360 358 8 15 10 6 4 354 357 3 2 3 1 0 358 357 360 1 359 360 359 358 356 354 351
10 22 350 112 192 116 134 167 127 153 124 105 127 138 137 165 247 10 11 3 360 1 4 360 2 5 360 358 356 354 355 356 6 11 11 12 11 10 14 4 2 2 0 358 359 359 2 3 3 2 359 357 356 354
8 33 354 354 335 151 175 133 116 191 206 164 66 73 76 67 49 15 353 4 357 356 358 355 354 356 0 357 354 358 356 349 352 2 16 22 21 20 22 8 11 7 6 5 7 10 10 8 6 5 3 360 356 354
Wind_Speed_850mb
54 53 52 51 51 54 51 45 38 35 27 28 27 30 27 31 24 27 30 26 42 31 55 51 58 58 55 49 22 19 19 10 18 17 12 11 14 14 22 36 29 22 19 25 23 29 27 26 23 23 5 16 3 10
50 50 51 47 49 47 43 38 33 30 29 26 31 29 24 19 23 26 33 21 28 38 42 50 53 53 55 51 41 40 19 32 12 5 4 8 15 13 20 17 34 27 25 21 20 17 16 15 11 21 19 15 23 20
50 48 45 45 44 44 40 35 32 32 33 29 28 28 28 27 22 25 31 32 28 25 47 53 48 46 55 64 59 52 44 27 24 11 5 6 15 7 7 14 20 26 25 19 23 6 16 30 17 24 25 35 28 28
46 45 46 45 45 43 42 38 36 35 35 31 31 26 21 19 23 29 34 32 28 16 11 33 24 39 33 39 55 52 56 43 25 17 2 6 8 12 9 13 14 12 27 25 22 34 29 27 28 32 38 35 34 39
44 45 44 44 44 43 41 42 41 37 36 34 27 24 23 21 25 26 26 26 22 21 9 39 64 41 34 31 41 40 37 41 32 13 5 5 12 6 4 9 6 4 11 10 7 29 21 32 39 37 43 46 43 39
43 43 44 45 42 42 42 43 41 39 37 34 31 29 29 26 26 32 11 4 5 16 13 9 36 30 21 40 28 30 30 33 17 6 3 12 10 7 7 3 10 30 19 15 12 58 36 61 53 49 51 44 40 46
41 39 41 43 42 43 45 46 44 43 41 38 36 31 27 24 24 23 14 17 20 19 10 11 12 17 18 13 25 26 26 21 12 8 10 12 7 7 6 4 7 20 31 42 56 58 45 34 41 41 42 42 50 42
40 40 40 42 45 48 51 53 50 47 42 32 27 27 27 28 31 28 15 16 7 12 8 7 10 14 6 31 19 28 29 28 13 11 8 5 7 10 6 5 23 27 38 47 60 51 38 37 36 44 54 59 48 44
38 38 42 46 51 59 60 56 50 44 31 24 22 21 25 11 9 9 23 29 11 14 7 5 5 7 17 7 14 22 32 11 15 3 3 5 3 3 9 17 25 24 21 41 52 50 41 44 50 52 51 44 53 46
38 41 45 50 56 65 65 57 50 44 26 26 21 8 10 9 25 38 7 5 7 8 10 8 15 7 4 10 5 15 7 5 1 5 6 6 7 23 29 22 26 33 32 40 38 34 41 51 52 43 41 35 38 41
43 48 53 54 57 67 66 55 49 44 22 21 13 9 27 20 13 7 7 6 4 6 12 16 18 5 5 6 3 12 4 6 3 2 3 6 6 9 17 25 38 48 50 51 50 43 34 32 36 38 40 33 41 21
47 52 56 53 58 69 63 52 50 32 18 14 19 17 19 10 6 7 7 4 6 5 12 11 10 10 4 4 2 7 1 4 5 5 6 5 5 14 3 15 28 44 52 44 38 34 28 23 20 14 19 11 3 13
49 53 56 49 64 72 65 49 39 22 14 12 11 10 14 9 8 14 11 5 11 11 16 15 10 2 6 9 4 5 9 10 10 7 6 5 11 12 10 19 30 28 30 31 31 27 17 12 20 19 16 22 6 15
48 51 45 52 68 67 53 39 31 31 12 9 12 12 10 11 12 10 22 23 39 48 53 37 21 3 12 8 7 7 2 2 8 8 9 7 17 19 15 18 38 32 25 29 25 17 26 32 38 26 21 20 17 18
47 43 36 56 64 56 39 21 31 26 11 10 10 8 13 22 32 27 38 46 48 47 50 17 11 5 17 11 9 8 9 11 9 8 4 7 21 27 30 33 26 30 24 33 40 36 32 30 30 29 30 32 18 13
47 34 29 55 52 40 31 18 22 13 10 9 8 19 37 35 38 45 48 48 59 59 11 16 15 10 13 9 14 17 8 11 7 4 7 17 25 25 27 28 32 32 20 27 27 23 28 25 21 21 20 22 22 20
40 17 50 50 46 17 37 20 11 12 11 12 23 33 35 38 33 40 50 48 47 48 25 10 15 14 12 9 8 6 3 6 15 19 18 22 24 29 33 30 32 31 33 34 22 29 25 20 22 21 20 17 16 19
33 38 39 42 38 16 14 15 13 12 17 24 26 34 38 37 38 40 34 41 39 37 38 23 21 22 12 8 6 9 7 15 11 10 16 18 20 21 24 25 25 24 30 42 30 29 28 36 38 39 32 29 18 35
33 32 30 31 24 15 11 14 14 13 18 29 32 38 34 42 47 52 49 41 43 40 43 24 13 14 18 24 31 36 38 30 23 25 26 30 31 29 25 28 25 24 30 32 33 30 28 29 29 31 28 28 23 21
22 18 28 22 29 10 8 7 8 11 15 18 19 22 33 40 43 45 55 55 50 47 30 16 19 35 40 41 41 40 35 35 35 34 34 36 27 30 30 27 26 26 24 25 28 26 29 25 27 27 26 25 25 22
22 22 16 22 11 15 12 13 12 12 14 17 31 25 30 38 49 50 49 44 53 22 27 37 43 45 43 44 46 42 39 33 37 29 23 31 23 22 17 17 20 21 20 22 24 25 26 27 26 27 23 23 22 19
17 20 16 15 11 11 8 13 10 13 12 16 23 20 15 24 33 32 34 42 22 21 22 29 35 40 45 51 53 57 56 34 27 30 32 18 26 23 25 23 22 20 22 25 24 24 25 26 26 27 24 24 23 21
21 19 11 10 8 8 6 7 6 6 7 10 10 9 10 10 11 10 10 18 19 22 35 24 28 39 41 41 50 52 53 48 42 34 35 34 25 23 22 18 18 18 16 19 21 25 27 27 29 25 22 22 22 21
15 8 7 9 9 6 8 2 1 4 5 8 6 4 5 4 5 10 11 17 28 39 41 39 35 35 38 41 43 47 50 44 36 33 33 32 30 28 34 34 26 26 30 23 23 28 29 28 28 27 25 27 22 17
7 7 7 8 2 8 3 7 11 6 4 1 2 2 4 9 4 7 7 22 35 39 43 36 35 36 37 38 38 39 40 40 39 36 32 30 26 24 24 22 36 29 30 31 32 29 29 28 29 31 30 29 25 23
4 2 4 16 11 8 11 11 10 9 8 6 10 14 16 9 8 8 8 18 24 30 31 36 37 37 35 35 39 41 39 38 38 35 34 34 29 25 25 29 33 34 36 32 30 31 33 30 31 33 33 33 31 29
3 2 8 7 7 11 18 23 16 12 7 6 14 14 2 7 8 6 21 25 22 22 24 29 34 24 29 34 35 35 35 35 38 34 29 28 28 25 27 31 33 32 30 27 28 30 29 30 32 33 31 28 26 28
18 17 23 49 22 22 7 9 10 10 15 22 10 14 7 7 5 8 9 15 20 24 21 13 17 25 31 35 35 34 31 32 34 34 26 22 27 30 29 27 28 28 26 25 28 26 24 33 33 29 26 26 28 27
13 40 21 13 21 20 17 15 24 24 31 28 14 11 7 5 8 4 7 9 13 17 23 28 28 30 31 31 29 29 30 31 36 38 36 32 33 34 32 29 29 27 26 25 30 22 25 29 27 24 25 27 28 28
20 12 15 8 20 12 24 20 24 24 30 33 23 20 14 8 5 7 14 19 24 26 28 30 29 30 30 31 31 28 28 28 26 31 32 32 32 30 28 30 28 28 27 25 25 23 29 26 26 26 27 26 27 29
9 7 8 16 9 18 14 11 15 14 16 20 16 14 15 8 7 13 24 26 27 29 28 27 27 26 26 29 28 29 26 24 23 28 32 23 23 23 25 28 27 29 26 27 25 26 28 28 27 27 29 30 30 31
7 16 21 3 8 14 12 5 7 7 9 6 3 7 10 8 3 8 20 31 29 28 26 28 26 23 22 23 24 23 22 16 21 27 34 26 22 20 22 26 25 29 27 26 25 25 27 28 27 29 30 31 32 33
11 16 14 14 8 2 21 10 5 3 4 7 6 13 16 11 10 14 16 24 24 22 25 25 24 21 21 22 25 22 18 14 27 24 42 36 30 28 24 26 28 29 27 27 24 23 25 27 28 30 31 32 33 35
Wind_Direction_850mb
340 341 341 340 338 337 335 334 331 329 330 328 325 320 301 290 278 277 278 270 240 258 269 274 270 277 282 270 256 292 320 261 246 201 170 190 257 271 239 248 222 217 217 234 225 214 221 118 157 230 8 110 34 326
342 343 343 343 347 348 348 347 345 343 339 328 321 317 316 299 292 285 277 279 265 263 268 281 264 262 257 260 276 259 228 279 332 296 203 239 252 290 302 287 266 247 245 244 245 242 134 131 97 116 131 106 38 17
352 349 349 350 349 353 353 353 349 348 344 336 329 321 310 303 294 285 284 277 287 287 283 268 268 270 254 247 243 257 263 268 266 210 294 271 249 326 279 267 326 274 31 269 229 196 115 112 131 119 110 90 64 41
360 1 0 358 355 356 353 348 342 336 337 333 330 328 327 316 308 296 285 284 284 276 275 288 291 288 275 273 221 231 242 257 301 302 295 277 284 19 347 317 307 324 318 321 241 134 114 117 112 107 100 94 77 62
1 1 360 359 356 355 354 351 344 338 338 337 335 329 329 320 330 323 303 291 272 243 284 297 303 284 266 235 212 214 225 236 263 306 353 306 321 357 340 265 310 345 331 334 336 334 114 111 102 93 84 79 75 75
355 355 355 353 353 355 357 354 353 351 343 337 326 320 315 311 307 313 300 359 8 267 289 305 311 304 292 191 195 199 209 223 256 74 340 294 267 218 287 324 294 338 306 279 108 61 62 78 84 81 77 82 80 77
356 357 354 354 355 352 349 349 348 342 333 328 321 315 310 305 299 283 280 276 291 303 284 295 296 289 296 213 182 185 194 187 187 117 213 252 230 27 247 254 341 23 126 94 95 96 62 65 68 72 68 76 79 76
358 356 357 359 357 353 347 342 340 336 329 327 325 318 306 295 285 281 291 333 228 240 255 279 284 282 241 197 164 179 179 186 155 190 225 252 300 238 199 110 86 44 65 88 90 106 105 94 80 65 61 65 62 61
354 357 355 354 356 355 349 344 342 345 349 343 334 310 306 289 255 300 313 311 281 228 267 250 272 315 318 109 252 146 191 191 153 220 211 248 276 347 358 70 86 82 92 96 94 95 95 84 66 57 54 53 58 43
352 351 351 352 353 356 353 345 343 338 340 346 324 279 287 297 297 305 295 228 221 224 233 250 210 260 268 241 318 188 82 63 355 283 253 48 17 31 32 84 106 110 99 103 92 83 75 75 75 62 55 47 60 46
345 344 343 345 350 355 352 346 348 352 19 346 319 292 303 308 293 235 223 253 237 265 224 255 270 257 177 162 232 20 79 126 146 236 46 53 9 15 38 83 103 104 107 104 104 102 101 101 90 72 72 61 61 46
340 340 341 341 350 355 352 349 344 354 323 320 319 310 314 292 268 311 315 202 215 288 285 259 322 324 118 129 102 204 351 108 39 344 76 75 357 27 95 137 110 97 96 92 88 85 83 92 96 79 111 123 136 2
335 337 337 339 352 351 349 351 353 13 26 360 337 323 327 304 349 352 327 336 303 176 256 258 54 230 241 116 251 306 33 64 165 41 62 78 223 213 153 106 108 101 97 84 71 68 50 59 70 68 60 38 113 103
335 337 334 344 351 346 344 359 19 28 23 16 346 352 355 336 2 306 305 309 310 8 354 350 345 268 213 177 64 19 334 349 52 45 42 38 352 11 126 75 76 74 93 92 87 84 76 62 82 79 48 43 55 65
335 339 329 345 339 342 348 13 21 17 355 11 32 331 348 310 305 305 340 341 4 340 312 317 203 291 12 28 35 32 44 53 36 31 36 2 358 27 58 68 70 84 69 62 66 61 62 58 65 69 61 53 55 68
333 345 323 328 340 350 11 37 16 3 354 8 342 351 1 0 357 360 352 353 350 350 349 30 23 37 37 36 23 29 26 19 320 347 74 36 44 42 40 49 58 78 114 101 87 73 57 75 73 61 50 52 49 55
329 323 317 336 345 6 26 15 353 20 21 14 3 4 12 2 14 351 348 358 5 5 34 27 31 27 47 26 43 49 44 315 316 34 57 62 56 59 53 53 56 51 47 49 48 63 60 56 62 59 64 45 49 56
327 323 337 343 354 52 10 1 344 23 24 27 360 19 14 3 2 1 8 11 6 11 46 57 53 42 40 21 29 3 61 94 141 85 94 73 65 75 80 75 66 57 49 50 70 57 52 43 49 37 39 53 22 19
333 339 352 6 19 36 9 12 354 359 23 24 13 20 8 14 10 7 17 40 45 51 51 45 53 38 46 35 36 40 41 49 51 52 66 69 58 56 81 82 82 72 57 57 55 49 48 46 35 24 17 19 19 20
355 4 11 25 31 356 9 352 327 360 15 339 10 28 18 26 23 26 31 35 48 47 42 46 53 47 47 43 41 40 47 54 56 56 51 41 51 59 50 50 51 55 53 48 42 32 24 27 20 8 360 348 347 354
17 349 27 38 30 24 12 358 350 12 338 348 4 48 42 49 40 30 27 46 50 39 46 56 63 59 50 43 38 37 40 55 57 47 49 49 38 43 43 48 43 41 38 33 19 19 20 23 8 0 355 357 351 341
350 18 51 3 15 14 42 17 9 338 337 358 22 46 42 36 54 48 45 57 52 42 44 48 53 54 48 41 32 31 28 29 46 32 17 42 42 23 25 19 19 21 24 29 16 19 15 14 3 358 357 357 351 349
5 14 4 359 9 24 359 353 11 342 2 1 22 46 27 28 43 36 49 27 21 39 48 39 54 53 47 44 34 32 27 19 29 32 16 9 20 22 6 1 3 19 23 23 15 11 3 359 356 349 348 352 345 354
22 17 342 353 350 334 336 316 331 341 37 15 31 20 109 113 64 49 65 25 32 38 35 30 30 30 32 29 28 24 16 14 13 16 17 10 8 5 28 31 31 38 26 20 9 357 351 349 346 345 346 339 349 353
341 14 324 283 266 332 14 343 350 33 331 172 117 212 188 129 94 69 68 3 27 25 21 18 21 25 23 13 10 9 9 9 5 357 10 6 5 7 13 11 43 43 14 2 354 353 351 345 348 357 360 9 4 351
19 106 2 357 357 4 353 1 358 335 341 334 3 8 24 42 68 50 18 358 12 12 22 22 15 6 2 3 0 4 6 5 3 2 358 356 19 28 20 10 3 5 7 359 359 357 351 349 347 344 341 341 338 332
279 266 260 268 297 3 28 341 333 27 54 319 354 356 53 61 66 45 44 42 41 20 5 349 344 355 354 359 359 359 360 2 2 354 349 5 35 30 21 10 8 354 353 354 355 353 351 352 347 341 337 334 335 335
346 326 36 18 326 104 135 354 37 4 349 352 7 23 42 54 75 38 26 351 334 328 342 0 2 3 2 357 353 355 357 358 359 359 359 16 22 18 11 1 354 356 352 356 360 350 353 347 343 346 346 342 346 348
5 13 4 10 39 40 38 46 28 27 2 354 49 45 67 115 111 358 338 342 345 342 344 4 351 352 354 354 358 1 5 4 7 10 11 4 360 357 356 357 355 355 353 352 349 358 13 4 355 355 351 349 346 347
359 81 102 288 51 56 44 54 43 52 49 53 83 99 96 96 62 360 352 337 337 347 357 353 357 2 359 358 359 1 7 10 14 11 1 355 351 350 357 357 357 355 354 357 356 358 359 1 355 357 358 355 354 352
3 9 40 45 24 116 84 91 89 81 80 82 80 100 123 120 41 36 13 8 1 1 1 358 1 3 2 2 1 360 358 8 15 10 6 4 354 357 3 2 3 1 0 358 357 360 1 359 360 359 358 356 354 351
10 22 350 112 192 116 134 167 127 153 124 105 127 138 137 165 247 10 11 3 360 1 4 360 2 5 360 358 356 354 355 356 6 11 11 12 11 10 14 4 2 2 0 358 359 359 2 3 3 2 359 357 356 354
8 33 354 354 335 151 175 133 116 191 206 164 66 73 76 67 49 15 353 4 357 356 358 355 354 356 0 357 354 358 356 349 352 2 16 22 21 20 22 8 11 7 6 5 7 10 10 8 6 5 3 360 356 354